• In Hungary
  • List of Countries
  • For 7 days
  • Water Temperature
  • Satellite Maps
  • Weather Map
  • News
  • Weather Widgets
  • user-avatar
    Login

    Hourly Weather Sarafovo

    Today, 14 December, Thursday

    Time Temperature Precipitation Wind Pressure Humidity
    00:00 +10°C° 0 mm 2 mps 757 mmHg 84%
    01:00 +10°C° 0 mm 3 mps 757 mmHg 85%
    02:00 +10°C° 0 mm 2 mps 756 mmHg 84%
    03:00 +10°C° 0 mm 2 mps 756 mmHg 84%
    04:00 +10°C° 0 mm 2 mps 756 mmHg 85%
    05:00 +10°C° 0 mm 2 mps 756 mmHg 85%
    06:00 +10°C° 0 mm 2 mps 756 mmHg 85%
    07:00 +10°C° 0 mm 2 mps 756 mmHg 86%
    08:00 +10°C° 0 mm 2 mps 756 mmHg 88%
    09:00 +12°C° 0 mm 1 mps 756 mmHg 82%
    10:00 +13°C° 0 mm 1 mps 756 mmHg 77%
    11:00 +14°C° 0 mm 1 mps 756 mmHg 71%
    12:00 +14°C° 0 mm 1 mps 756 mmHg 67%
    13:00 +15°C° 0 mm 1 mps 756 mmHg 64%
    14:00 +16°C° 0 mm 1 mps 756 mmHg 60%
    15:00 +15°C° 0 mm 1 mps 756 mmHg 64%
    16:00 +14°C° 0 mm 1 mps 756 mmHg 69%
    17:00 +13°C° 0 mm 1 mps 756 mmHg 73%
    18:00 +12°C° 0 mm 1 mps 756 mmHg 76%
    19:00 +12°C° 0 mm 1 mps 756 mmHg 79%
    20:00 +11°C° 0 mm 1 mps 756 mmHg 81%
    21:00 +11°C° 0 mm 1 mps 756 mmHg 83%
    22:00 +11°C° 0 mm 1 mps 756 mmHg 85%
    23:00 +10°C° 0 mm 1 mps 756 mmHg 86%

    Tomorrow, 15 December, Friday

    Time Temperature Precipitation Wind Pressure Humidity
    00:00 +9°C° 0 mm 2 mps 756 mmHg 87%
    01:00 +9°C° 0 mm 2 mps 756 mmHg 88%
    02:00 +9°C° 0 mm 2 mps 756 mmHg 89%
    03:00 +9°C° 0 mm 2 mps 756 mmHg 89%
    04:00 +8°C° 0 mm 2 mps 756 mmHg 90%
    05:00 +8°C° 0 mm 2 mps 756 mmHg 90%
    06:00 +8°C° 0 mm 2 mps 756 mmHg 89%
    07:00 +8°C° 0 mm 2 mps 757 mmHg 89%
    08:00 +8°C° 0 mm 2 mps 757 mmHg 89%
    09:00 +9°C° 0 mm 2 mps 757 mmHg 82%
    10:00 +11°C° 0 mm 3 mps 757 mmHg 75%
    11:00 +13°C° 0 mm 3 mps 758 mmHg 67%
    12:00 +14°C° 0 mm 3 mps 757 mmHg 64%
    13:00 +14°C° 0 mm 3 mps 757 mmHg 61%
    14:00 +15°C° 0 mm 4 mps 756 mmHg 58%
    15:00 +14°C° 0 mm 4 mps 756 mmHg 62%
    16:00 +13°C° 0 mm 4 mps 756 mmHg 66%
    17:00 +12°C° 0 mm 4 mps 756 mmHg 70%
    18:00 +12°C° 0 mm 5 mps 756 mmHg 73%
    19:00 +12°C° 0 mm 5 mps 756 mmHg 76%
    20:00 +11°C° 0 mm 6 mps 755 mmHg 79%
    21:00 +11°C° 0 mm 7 mps 755 mmHg 81%
    22:00 +11°C° 0 mm 7 mps 755 mmHg 84%
    23:00 +11°C° 0 mm 7 mps 754 mmHg 86%

    Day after tomorrow, 16 December, Saturday

    Time Temperature Precipitation Wind Pressure Humidity
    00:00 +11°C° 0 mm 8 mps 754 mmHg 86%
    01:00 +11°C° 0 mm 8 mps 754 mmHg 86%
    02:00 +11°C° 0 mm 9 mps 754 mmHg 86%
    03:00 +11°C° 0 mm 8 mps 754 mmHg 86%
    04:00 +12°C° 0 mm 8 mps 753 mmHg 86%
    05:00 +12°C° 0 mm 8 mps 753 mmHg 86%
    06:00 +12°C° 0 mm 8 mps 753 mmHg 85%
    07:00 +12°C° 0 mm 8 mps 753 mmHg 85%
    08:00 +12°C° 0 mm 8 mps 753 mmHg 85%
    09:00 +13°C° 0 mm 9 mps 753 mmHg 78%
    10:00 +15°C° 0 mm 9 mps 753 mmHg 72%
    11:00 +16°C° 0 mm 9 mps 753 mmHg 66%
    12:00 +16°C° 0 mm 9 mps 753 mmHg 62%
    13:00 +17°C° 0 mm 9 mps 753 mmHg 58%
    14:00 +17°C° 0 mm 9 mps 752 mmHg 55%
    15:00 +17°C° 0 mm 9 mps 752 mmHg 59%
    16:00 +16°C° 0 mm 9 mps 752 mmHg 62%
    17:00 +15°C° 0 mm 9 mps 752 mmHg 66%
    18:00 +15°C° 0.1 mm 9 mps 753 mmHg 70%
    19:00 +15°C° 0.1 mm 9 mps 753 mmHg 73%
    20:00 +15°C° 0.1 mm 8 mps 753 mmHg 77%
    21:00 +15°C° 0.4 mm 9 mps 753 mmHg 78%
    22:00 +13°C° 0.4 mm 9 mps 753 mmHg 78%
    23:00 +13°C° 0.4 mm 9 mps 753 mmHg 79%

    17 December, Sunday

    Time Temperature Precipitation Wind Pressure Humidity
    00:00 +13°C° 1.1 mm 8 mps 752 mmHg 80%
    01:00 +13°C° 1.1 mm 8 mps 752 mmHg 80%
    02:00 +14°C° 1.1 mm 7 mps 751 mmHg 80%
    03:00 +13°C° 0.4 mm 8 mps 751 mmHg 80%
    04:00 +13°C° 0.4 mm 8 mps 750 mmHg 79%
    05:00 +13°C° 0.4 mm 8 mps 749 mmHg 79%
    06:00 +13°C° 0.6 mm 9 mps 749 mmHg 81%
    07:00 +12°C° 0.6 mm 9 mps 750 mmHg 83%
    08:00 +12°C° 0.6 mm 9 mps 750 mmHg 85%
    09:00 +11°C° 2.7 mm 9 mps 750 mmHg 83%
    10:00 +8°C° 2.7 mm 9 mps 751 mmHg 82%
    11:00 +7°C° 2.7 mm 8 mps 751 mmHg 80%
    12:00 +7°C° 0.3 mm 8 mps 752 mmHg 78%
    13:00 +6°C° 0.3 mm 8 mps 752 mmHg 76%
    14:00 +6°C° 0.3 mm 8 mps 753 mmHg 74%
    15:00 +6°C° 0 mm 7 mps 754 mmHg 75%
    16:00 +5°C° 0 mm 6 mps 755 mmHg 76%
    17:00 +5°C° 0 mm 6 mps 756 mmHg 76%
    18:00 +6°C° 0 mm 5 mps 757 mmHg 76%
    19:00 +5°C° 0 mm 4 mps 758 mmHg 76%
    20:00 +5°C° 0 mm 4 mps 759 mmHg 76%
    21:00 +5°C° 0 mm 4 mps 760 mmHg 75%
    22:00 +5°C° 0 mm 3 mps 760 mmHg 74%
    23:00 +5°C° 0 mm 3 mps 761 mmHg 73%

    18 December, Monday

    Time Temperature Precipitation Wind Pressure Humidity
    00:00 +4°C° 0.1 mm 3 mps 761 mmHg 73%
    01:00 +4°C° 0.1 mm 3 mps 762 mmHg 73%
    02:00 +4°C° 0.1 mm 3 mps 762 mmHg 73%
    03:00 +4°C° 0.1 mm 3 mps 762 mmHg 73%
    04:00 +4°C° 0.1 mm 3 mps 762 mmHg 73%
    05:00 +4°C° 0.1 mm 3 mps 762 mmHg 74%
    06:00 +3°C° 0.1 mm 3 mps 763 mmHg 75%
    07:00 +3°C° 0.1 mm 3 mps 763 mmHg 75%
    08:00 +3°C° 0.1 mm 3 mps 763 mmHg 76%
    09:00 +3°C° 0.1 mm 4 mps 763 mmHg 74%
    10:00 +4°C° 0.1 mm 4 mps 763 mmHg 73%
    11:00 +4°C° 0.1 mm 4 mps 764 mmHg 71%
    12:00 +3°C° 0.1 mm 5 mps 763 mmHg 70%
    13:00 +3°C° 0.1 mm 5 mps 763 mmHg 69%
    14:00 +3°C° 0.1 mm 5 mps 762 mmHg 68%
    15:00 +2°C° 0.3 mm 5 mps 762 mmHg 70%
    16:00 +2°C° 0.3 mm 5 mps 762 mmHg 72%
    17:00 +3°C° 0.3 mm 4 mps 762 mmHg 73%
    18:00 +1°C° 0.1 mm 5 mps 762 mmHg 74%
    19:00 +1°C° 0.1 mm 5 mps 763 mmHg 74%
    20:00 0°C° 0.1 mm 5 mps 763 mmHg 75%
    21:00 0°C° 0 mm 5 mps 763 mmHg 75%
    22:00 0°C° 0 mm 5 mps 763 mmHg 76%
    23:00 -1°C° 0 mm 5 mps 763 mmHg 77%

    19 December, Tuesday

    Time Temperature Precipitation Wind Pressure Humidity
    00:00 -1°C° 0 mm 5 mps 763 mmHg 77%
    01:00 -1°C° 0 mm 5 mps 764 mmHg 78%
    02:00 -1°C° 0 mm 5 mps 764 mmHg 78%
    03:00 -2°C° 0 mm 4 mps 764 mmHg 79%
    04:00 -2°C° 0 mm 4 mps 764 mmHg 79%
    05:00 -2°C° 0 mm 4 mps 764 mmHg 80%
    06:00 -1°C° 0 mm 3 mps 765 mmHg 80%
    07:00 -1°C° 0 mm 3 mps 765 mmHg 80%
    08:00 -1°C° 0 mm 3 mps 766 mmHg 79%
    09:00 0°C° 0 mm 3 mps 766 mmHg 75%
    10:00 +1°C° 0 mm 3 mps 766 mmHg 70%
    11:00 +2°C° 0 mm 3 mps 766 mmHg 65%
    12:00 +3°C° 0 mm 3 mps 766 mmHg 63%
    13:00 +3°C° 0 mm 3 mps 766 mmHg 61%
    14:00 +5°C° 0 mm 2 mps 766 mmHg 58%
    15:00 +4°C° 0 mm 2 mps 766 mmHg 62%
    16:00 +3°C° 0 mm 2 mps 766 mmHg 66%
    17:00 +2°C° 0 mm 2 mps 766 mmHg 70%
    18:00 +2°C° 0 mm 2 mps 766 mmHg 72%
    19:00 +2°C° 0 mm 2 mps 766 mmHg 74%
    20:00 +1°C° 0 mm 2 mps 766 mmHg 76%
    21:00 +1°C° 0 mm 2 mps 766 mmHg 77%
    22:00 +1°C° 0 mm 2 mps 766 mmHg 78%
    23:00 0°C° 0 mm 3 mps 766 mmHg 79%
    Show more